owner,sensor,date,latitude,longitude,vertical_datum,mass_concentration_of_oxygen_in_sea_water,qcFlag 
DISL,ioos:station:DISL:MBLA:1,2014-09-01T00:02:00Z,30.4367,-88.0117,3.044,5.96,1111122 
DISL,ioos:station:DISL:MBLA:1,2014-09-01T00:05:00Z,30.4367,-88.0117,2.566,7.4,1111122 
DISL,ioos:station:DISL:MBLA:1,2014-09-01T00:08:00Z,30.4367,-88.0117,2.07,7.55,1111122 
DISL,ioos:station:DISL:MBLA:1,2014-09-01T00:11:00Z,30.4367,-88.0117,1.438,7.51,1111122 
DISL,ioos:station:DISL:MBLA:1,2014-09-01T00:13:00Z,30.4367,-88.0117,0.903,7.62,1111122 
DISL,ioos:station:DISL:MBLA:1,2014-09-01T00:15:00Z,30.4367,-88.0117,0.456,7.68,1111122 
DISL,ioos:station:DISL:MBLA:1,2014-09-01T01:02:00Z,30.4367,-88.0117,3.074,5.31,1111122 
DISL,ioos:station:DISL:MBLA:1,2014-09-01T01:05:00Z,30.4367,-88.0117,2.426,6.95,1111122 
DISL,ioos:station:DISL:MBLA:1,2014-09-01T01:07:00Z,30.4367,-88.0117,2.08,7.24,1111122 
DISL,ioos:station:DISL:MBLA:1,2014-09-01T01:10:00Z,30.4367,-88.0117,1.384,7.34,1111122 
DISL,ioos:station:DISL:MBLA:1,2014-09-01T01:12:00Z,30.4367,-88.0117,1.04,7.42,1111122 
DISL,ioos:station:DISL:MBLA:1,2014-09-01T01:15:00Z,30.4367,-88.0117,0.398,7.57,1111122 
DISL,ioos:station:DISL:MBLA:1,2014-09-01T02:02:00Z,30.4367,-88.0117,3.005,6.59,1111122 
DISL,ioos:station:DISL:MBLA:1,2014-09-01T02:05:00Z,30.4367,-88.0117,2.424,7.47,1111122 
DISL,ioos:station:DISL:MBLA:1,2014-09-01T02:07:00Z,30.4367,-88.0117,2.082,7.53,1111122 
DISL,ioos:station:DISL:MBLA:1,2014-09-01T02:10:00Z,30.4367,-88.0117,1.575,7.53,1111122 
DISL,ioos:station:DISL:MBLA:1,2014-09-01T02:12:00Z,30.4367,-88.0117,0.901,7.54,1111122 
DISL,ioos:station:DISL:MBLA:1,2014-09-01T02:15:00Z,30.4367,-88.0117,0.492,7.54,1111122 
DISL,ioos:station:DISL:MBLA:1,2014-09-01T03:02:00Z,30.4367,-88.0117,3.062,6.59,1111122 
DISL,ioos:station:DISL:MBLA:1,2014-09-01T03:07:00Z,30.4367,-88.0117,2.065,7.37,1111122 
DISL,ioos:station:DISL:MBLA:1,2014-09-01T03:10:00Z,30.4367,-88.0117,1.559,7.46,1111122 
DISL,ioos:station:DISL:MBLA:1,2014-09-01T03:12:00Z,30.4367,-88.0117,0.899,7.52,1111122 
DISL,ioos:station:DISL:MBLA:1,2014-09-01T03:15:00Z,30.4367,-88.0117,0.371,7.56,1111122 
DISL,ioos:station:DISL:MBLA:1,2014-09-01T04:02:00Z,30.4367,-88.0117,3.055,5.3,1111122 
DISL,ioos:station:DISL:MBLA:1,2014-09-01T04:15:00Z,30.4367,-88.0117,0.36,7.18,1111122 
DISL,ioos:station:DISL:MBLA:1,2014-09-01T05:02:00Z,30.4367,-88.0117,3.095,4.61,1111122 
DISL,ioos:station:DISL:MBLA:1,2014-09-01T05:05:00Z,30.4367,-88.0117,2.457,4.69,1111122 
DISL,ioos:station:DISL:MBLA:1,2014-09-01T05:07:00Z,30.4367,-88.0117,1.914,6.67,1111122 
DISL,ioos:station:DISL:MBLA:1,2014-09-01T05:10:00Z,30.4367,-88.0117,1.547,6.76,1111122 
DISL,ioos:station:DISL:MBLA:1,2014-09-01T05:12:00Z,30.4367,-88.0117,0.917,6.89,1111122 
DISL,ioos:station:DISL:MBLA:1,2014-09-01T05:15:00Z,30.4367,-88.0117,0.386,6.89,1111122 
DISL,ioos:station:DISL:MBLA:1,2014-09-01T06:02:00Z,30.4367,-88.0117,3.067,4.46,1111122 
DISL,ioos:station:DISL:MBLA:1,2014-09-01T06:05:00Z,30.4367,-88.0117,2.596,5.44,1111122 
DISL,ioos:station:DISL:MBLA:1,2014-09-01T06:07:00Z,30.4367,-88.0117,1.922,6.4,1111122 
DISL,ioos:station:DISL:MBLA:1,2014-09-01T06:10:00Z,30.4367,-88.0117,1.579,6.42,1111122 
DISL,ioos:station:DISL:MBLA:1,2014-09-01T06:13:00Z,30.4367,-88.0117,1.109,6.47,1111122 
DISL,ioos:station:DISL:MBLA:1,2014-09-01T06:15:00Z,30.4367,-88.0117,0.437,6.48,1111122 
DISL,ioos:station:DISL:MBLA:1,2014-09-01T07:02:00Z,30.4367,-88.0117,3.001,4.53,1111122 
DISL,ioos:station:DISL:MBLA:1,2014-09-01T07:07:00Z,30.4367,-88.0117,2.077,5.93,1111122 
DISL,ioos:station:DISL:MBLA:1,2014-09-01T07:10:00Z,30.4367,-88.0117,1.389,6.1,1111122 
DISL,ioos:station:DISL:MBLA:1,2014-09-01T07:12:00Z,30.4367,-88.0117,0.97,6.17,1111122 
DISL,ioos:station:DISL:MBLA:1,2014-09-01T07:15:00Z,30.4367,-88.0117,0.495,6.21,1111122 
DISL,ioos:station:DISL:MBLA:1,2014-09-01T08:02:00Z,30.4367,-88.0117,3.088,4.48,1111122 
DISL,ioos:station:DISL:MBLA:1,2014-09-01T08:05:00Z,30.4367,-88.0117,2.449,5.1,1111122 
DISL,ioos:station:DISL:MBLA:1,2014-09-01T08:07:00Z,30.4367,-88.0117,1.907,5.44,1111122 
DISL,ioos:station:DISL:MBLA:1,2014-09-01T08:10:00Z,30.4367,-88.0117,1.412,5.57,1111122 
DISL,ioos:station:DISL:MBLA:1,2014-09-01T08:12:00Z,30.4367,-88.0117,0.901,5.63,1111122 
DISL,ioos:station:DISL:MBLA:1,2014-09-01T08:15:00Z,30.4367,-88.0117,0.387,5.7,1111122 
DISL,ioos:station:DISL:MBLA:1,2014-09-01T09:02:00Z,30.4367,-88.0117,3.079,4.53,1111122 
DISL,ioos:station:DISL:MBLA:1,2014-09-01T09:05:00Z,30.4367,-88.0117,2.429,3.78,1111122 
DISL,ioos:station:DISL:MBLA:1,2014-09-01T09:07:00Z,30.4367,-88.0117,1.893,4.63,1111122 
DISL,ioos:station:DISL:MBLA:1,2014-09-01T09:10:00Z,30.4367,-88.0117,1.533,4.68,1111122 
DISL,ioos:station:DISL:MBLA:1,2014-09-01T09:12:00Z,30.4367,-88.0117,0.926,5.33,1111122 
DISL,ioos:station:DISL:MBLA:1,2014-09-01T09:15:00Z,30.4367,-88.0117,0.36,5.42,1111122 
DISL,ioos:station:DISL:MBLA:1,2014-09-01T10:03:00Z,30.4367,-88.0117,3.021,3.12,1111122 
DISL,ioos:station:DISL:MBLA:1,2014-09-01T10:05:00Z,30.4367,-88.0117,2.434,4.01,1111122 
DISL,ioos:station:DISL:MBLA:1,2014-09-01T10:08:00Z,30.4367,-88.0117,1.933,3.27,1111122 
DISL,ioos:station:DISL:MBLA:1,2014-09-01T10:10:00Z,30.4367,-88.0117,1.398,5.22,1111122 
DISL,ioos:station:DISL:MBLA:1,2014-09-01T10:13:00Z,30.4367,-88.0117,0.966,5.29,1111122 
DISL,ioos:station:DISL:MBLA:1,2014-09-01T10:15:00Z,30.4367,-88.0117,0.47,5.33,1111122 
DISL,ioos:station:DISL:MBLA:1,2014-09-01T11:02:00Z,30.4367,-88.0117,3.043,3.95,1111122 
DISL,ioos:station:DISL:MBLA:1,2014-09-01T11:05:00Z,30.4367,-88.0117,2.406,4.55,1111122 
DISL,ioos:station:DISL:MBLA:1,2014-09-01T11:07:00Z,30.4367,-88.0117,2.046,5.08,1111122 
DISL,ioos:station:DISL:MBLA:1,2014-09-01T11:10:00Z,30.4367,-88.0117,1.549,5.33,1111122 
DISL,ioos:station:DISL:MBLA:1,2014-09-01T11:12:00Z,30.4367,-88.0117,0.899,5.41,1111122 
DISL,ioos:station:DISL:MBLA:1,2014-09-01T11:15:00Z,30.4367,-88.0117,0.44,5.48,1111122 
DISL,ioos:station:DISL:MBLA:1,2014-09-01T12:02:00Z,30.4367,-88.0117,3.062,3.99,1111122 
DISL,ioos:station:DISL:MBLA:1,2014-09-01T12:05:00Z,30.4367,-88.0117,2.417,4.25,1111122 
DISL,ioos:station:DISL:MBLA:1,2014-09-01T12:07:00Z,30.4367,-88.0117,2.064,4.29,1111122 
DISL,ioos:station:DISL:MBLA:1,2014-09-01T12:10:00Z,30.4367,-88.0117,1.561,4.97,1111122 
DISL,ioos:station:DISL:MBLA:1,2014-09-01T12:12:00Z,30.4367,-88.0117,0.906,5.27,1111122 
DISL,ioos:station:DISL:MBLA:1,2014-09-01T12:15:00Z,30.4367,-88.0117,0.418,5.36,1111122 
DISL,ioos:station:DISL:MBLA:1,2014-09-01T13:02:00Z,30.4367,-88.0117,3.057,4.95,1111122 
DISL,ioos:station:DISL:MBLA:1,2014-09-01T13:05:00Z,30.4367,-88.0117,2.579,4.42,1111122 
DISL,ioos:station:DISL:MBLA:1,2014-09-01T13:08:00Z,30.4367,-88.0117,2.069,4.72,1111122 
DISL,ioos:station:DISL:MBLA:1,2014-09-01T13:10:00Z,30.4367,-88.0117,1.563,4.9,1111122 
DISL,ioos:station:DISL:MBLA:1,2014-09-01T13:13:00Z,30.4367,-88.0117,1.058,5.14,1111122 
DISL,ioos:station:DISL:MBLA:1,2014-09-01T13:15:00Z,30.4367,-88.0117,0.373,5.24,1111122 
DISL,ioos:station:DISL:MBLA:1,2014-09-01T14:02:00Z,30.4367,-88.0117,3.046,4.76,1111122 
DISL,ioos:station:DISL:MBLA:1,2014-09-01T14:05:00Z,30.4367,-88.0117,2.544,5.0,1111122 
DISL,ioos:station:DISL:MBLA:1,2014-09-01T14:08:00Z,30.4367,-88.0117,1.943,4.98,1111122 
DISL,ioos:station:DISL:MBLA:1,2014-09-01T14:10:00Z,30.4367,-88.0117,1.375,5.67,1111122 
DISL,ioos:station:DISL:MBLA:1,2014-09-01T14:13:00Z,30.4367,-88.0117,0.907,5.93,1111122 
DISL,ioos:station:DISL:MBLA:1,2014-09-01T14:15:00Z,30.4367,-88.0117,0.347,6.32,1111122 
DISL,ioos:station:DISL:MBLA:1,2014-09-01T15:03:00Z,30.4367,-88.0117,2.896,5.0,1111122 
DISL,ioos:station:DISL:MBLA:1,2014-09-01T15:06:00Z,30.4367,-88.0117,2.571,4.98,1111122 
DISL,ioos:station:DISL:MBLA:1,2014-09-01T15:08:00Z,30.4367,-88.0117,2.117,5.01,1111122 
DISL,ioos:station:DISL:MBLA:1,2014-09-01T15:11:00Z,30.4367,-88.0117,1.428,5.71,1111122 
DISL,ioos:station:DISL:MBLA:1,2014-09-01T15:14:00Z,30.4367,-88.0117,0.88,6.12,1111122 
DISL,ioos:station:DISL:MBLA:1,2014-09-01T15:16:00Z,30.4367,-88.0117,0.491,6.21,1111122 
DISL,ioos:station:DISL:MBLA:1,2014-09-01T16:03:00Z,30.4367,-88.0117,2.93,5.7,1111122 
DISL,ioos:station:DISL:MBLA:1,2014-09-01T16:05:00Z,30.4367,-88.0117,2.588,5.75,1111122 
DISL,ioos:station:DISL:MBLA:1,2014-09-01T16:08:00Z,30.4367,-88.0117,2.093,5.58,1111122 
DISL,ioos:station:DISL:MBLA:1,2014-09-01T16:11:00Z,30.4367,-88.0117,1.369,6.23,1111122 
DISL,ioos:station:DISL:MBLA:1,2014-09-01T16:13:00Z,30.4367,-88.0117,0.992,6.27,1111122 
DISL,ioos:station:DISL:MBLA:1,2014-09-01T16:16:00Z,30.4367,-88.0117,0.623,6.35,1111122 
DISL,ioos:station:DISL:MBLA:1,2014-09-01T17:02:00Z,30.4367,-88.0117,3.079,5.43,1111122 
DISL,ioos:station:DISL:MBLA:1,2014-09-01T17:08:00Z,30.4367,-88.0117,1.965,6.24,1111122 
DISL,ioos:station:DISL:MBLA:1,2014-09-01T17:10:00Z,30.4367,-88.0117,1.675,6.46,1111122 
DISL,ioos:station:DISL:MBLA:1,2014-09-01T17:13:00Z,30.4367,-88.0117,1.116,6.61,1111122 
DISL,ioos:station:DISL:MBLA:1,2014-09-01T17:16:00Z,30.4367,-88.0117,0.529,6.67,1111122 
DISL,ioos:station:DISL:MBLA:1,2014-09-01T18:02:00Z,30.4367,-88.0117,3.103,5.28,1111122 
DISL,ioos:station:DISL:MBLA:1,2014-09-01T18:05:00Z,30.4367,-88.0117,2.592,5.91,1111122 
DISL,ioos:station:DISL:MBLA:1,2014-09-01T18:08:00Z,30.4367,-88.0117,2.065,6.31,1111122 
DISL,ioos:station:DISL:MBLA:1,2014-09-01T18:11:00Z,30.4367,-88.0117,1.388,6.81,1111122 
DISL,ioos:station:DISL:MBLA:1,2014-09-01T18:13:00Z,30.4367,-88.0117,1.173,6.91,1111122 
DISL,ioos:station:DISL:MBLA:1,2014-09-01T18:16:00Z,30.4367,-88.0117,0.537,7.0,1111122 
DISL,ioos:station:DISL:MBLA:1,2014-09-01T19:02:00Z,30.4367,-88.0117,3.088,4.77,1111122 
DISL,ioos:station:DISL:MBLA:1,2014-09-01T19:05:00Z,30.4367,-88.0117,2.576,5.48,1111122 
DISL,ioos:station:DISL:MBLA:1,2014-09-01T19:07:00Z,30.4367,-88.0117,1.855,6.67,1111122 
DISL,ioos:station:DISL:MBLA:1,2014-09-01T19:10:00Z,30.4367,-88.0117,1.544,6.96,1111122 
DISL,ioos:station:DISL:MBLA:1,2014-09-01T19:16:00Z,30.4367,-88.0117,0.431,7.37,1111122 
DISL,ioos:station:DISL:MBLA:1,2014-09-01T20:03:00Z,30.4367,-88.0117,2.905,5.15,1111122 
DISL,ioos:station:DISL:MBLA:1,2014-09-01T20:05:00Z,30.4367,-88.0117,2.556,6.17,1111122 
DISL,ioos:station:DISL:MBLA:1,2014-09-01T20:08:00Z,30.4367,-88.0117,2.096,6.39,1111122 
DISL,ioos:station:DISL:MBLA:1,2014-09-01T20:10:00Z,30.4367,-88.0117,1.547,6.93,1111122 
DISL,ioos:station:DISL:MBLA:1,2014-09-01T20:13:00Z,30.4367,-88.0117,1.119,7.24,1111122 
DISL,ioos:station:DISL:MBLA:1,2014-09-01T20:16:00Z,30.4367,-88.0117,0.558,7.41,1111122 
DISL,ioos:station:DISL:MBLA:1,2014-09-01T21:02:00Z,30.4367,-88.0117,3.112,5.34,1111122 
DISL,ioos:station:DISL:MBLA:1,2014-09-01T21:05:00Z,30.4367,-88.0117,2.416,6.27,1111122 
DISL,ioos:station:DISL:MBLA:1,2014-09-01T21:07:00Z,30.4367,-88.0117,2.047,6.43,1111122 
DISL,ioos:station:DISL:MBLA:1,2014-09-01T21:10:00Z,30.4367,-88.0117,1.587,6.68,1111122 
DISL,ioos:station:DISL:MBLA:1,2014-09-01T21:13:00Z,30.4367,-88.0117,1.127,6.94,1111122 
DISL,ioos:station:DISL:MBLA:1,2014-09-01T21:15:00Z,30.4367,-88.0117,0.38,7.3,1111122 
DISL,ioos:station:DISL:MBLA:1,2014-09-01T22:02:00Z,30.4367,-88.0117,3.069,5.76,1111122 
DISL,ioos:station:DISL:MBLA:1,2014-09-01T22:05:00Z,30.4367,-88.0117,2.564,6.54,1111122 
DISL,ioos:station:DISL:MBLA:1,2014-09-01T22:07:00Z,30.4367,-88.0117,1.882,6.89,1111122 
DISL,ioos:station:DISL:MBLA:1,2014-09-01T22:10:00Z,30.4367,-88.0117,1.474,6.99,1111122 
DISL,ioos:station:DISL:MBLA:1,2014-09-01T22:13:00Z,30.4367,-88.0117,1.131,7.08,1111122 
DISL,ioos:station:DISL:MBLA:1,2014-09-01T22:16:00Z,30.4367,-88.0117,0.551,7.24,1111122 
DISL,ioos:station:DISL:MBLA:1,2014-09-01T23:03:00Z,30.4367,-88.0117,3.051,6.26,1111122 
DISL,ioos:station:DISL:MBLA:1,2014-09-01T23:05:00Z,30.4367,-88.0117,2.326,6.98,1111122 
DISL,ioos:station:DISL:MBLA:1,2014-09-01T23:08:00Z,30.4367,-88.0117,1.985,7.03,1111122 
DISL,ioos:station:DISL:MBLA:1,2014-09-01T23:13:00Z,30.4367,-88.0117,0.865,7.19,1111122 
DISL,ioos:station:DISL:MBLA:1,2014-09-01T23:15:00Z,30.4367,-88.0117,0.488,7.2,1111122 
DISL,ioos:station:DISL:MBLA:1,2014-09-02T00:02:00Z,30.4367,-88.0117,3.064,5.92,1111122 
DISL,ioos:station:DISL:MBLA:1,2014-09-02T00:05:00Z,30.4367,-88.0117,2.405,6.75,1111122 
DISL,ioos:station:DISL:MBLA:1,2014-09-02T00:07:00Z,30.4367,-88.0117,2.035,6.76,1111122 
DISL,ioos:station:DISL:MBLA:1,2014-09-02T00:10:00Z,30.4367,-88.0117,1.534,6.76,1111122 
DISL,ioos:station:DISL:MBLA:1,2014-09-02T00:12:00Z,30.4367,-88.0117,0.933,6.77,1111122 
DISL,ioos:station:DISL:MBLA:1,2014-09-02T00:15:00Z,30.4367,-88.0117,0.551,6.8,1111122 
DISL,ioos:station:DISL:MBLA:1,2014-09-02T01:02:00Z,30.4367,-88.0117,3.053,6.2,1111122 
DISL,ioos:station:DISL:MBLA:1,2014-09-02T01:05:00Z,30.4367,-88.0117,2.393,6.63,1111122 
DISL,ioos:station:DISL:MBLA:1,2014-09-02T01:07:00Z,30.4367,-88.0117,2.049,6.65,1111122 
DISL,ioos:station:DISL:MBLA:1,2014-09-02T01:10:00Z,30.4367,-88.0117,1.475,6.63,1111122 
DISL,ioos:station:DISL:MBLA:1,2014-09-02T01:13:00Z,30.4367,-88.0117,0.942,6.6,1111122 
DISL,ioos:station:DISL:MBLA:1,2014-09-02T01:16:00Z,30.4367,-88.0117,0.481,6.64,1111122 
DISL,ioos:station:DISL:MBLA:1,2014-09-02T02:02:00Z,30.4367,-88.0117,3.014,6.4,1111122 
DISL,ioos:station:DISL:MBLA:1,2014-09-02T02:05:00Z,30.4367,-88.0117,2.438,6.49,1111122 
DISL,ioos:station:DISL:MBLA:1,2014-09-02T02:07:00Z,30.4367,-88.0117,2.096,6.47,1111122 
DISL,ioos:station:DISL:MBLA:1,2014-09-02T02:10:00Z,30.4367,-88.0117,1.398,6.44,1111122 
DISL,ioos:station:DISL:MBLA:1,2014-09-02T02:12:00Z,30.4367,-88.0117,0.961,6.44,1111122 
DISL,ioos:station:DISL:MBLA:1,2014-09-02T02:15:00Z,30.4367,-88.0117,0.492,6.44,1111122 
DISL,ioos:station:DISL:MBLA:1,2014-09-02T03:03:00Z,30.4367,-88.0117,2.927,6.38,1111122 
DISL,ioos:station:DISL:MBLA:1,2014-09-02T03:08:00Z,30.4367,-88.0117,2.082,6.36,1111122 
DISL,ioos:station:DISL:MBLA:1,2014-09-02T03:10:00Z,30.4367,-88.0117,1.564,6.3,1111122 
DISL,ioos:station:DISL:MBLA:1,2014-09-02T03:13:00Z,30.4367,-88.0117,0.963,6.33,1111122 
DISL,ioos:station:DISL:MBLA:1,2014-09-02T03:15:00Z,30.4367,-88.0117,0.548,6.34,1111122 
DISL,ioos:station:DISL:MBLA:1,2014-09-02T04:02:00Z,30.4367,-88.0117,3.059,6.23,1111122 
DISL,ioos:station:DISL:MBLA:1,2014-09-02T04:05:00Z,30.4367,-88.0117,2.403,6.28,1111122 
DISL,ioos:station:DISL:MBLA:1,2014-09-02T04:07:00Z,30.4367,-88.0117,2.05,6.26,1111122 
DISL,ioos:station:DISL:MBLA:1,2014-09-02T04:10:00Z,30.4367,-88.0117,1.622,6.32,1111122 
DISL,ioos:station:DISL:MBLA:1,2014-09-02T04:12:00Z,30.4367,-88.0117,0.952,6.34,1111122 
DISL,ioos:station:DISL:MBLA:1,2014-09-02T04:15:00Z,30.4367,-88.0117,0.491,6.36,1111122 
DISL,ioos:station:DISL:MBLA:1,2014-09-02T05:03:00Z,30.4367,-88.0117,2.971,6.16,1111122 
DISL,ioos:station:DISL:MBLA:1,2014-09-02T05:05:00Z,30.4367,-88.0117,2.562,6.19,1111122 
DISL,ioos:station:DISL:MBLA:1,2014-09-02T05:08:00Z,30.4367,-88.0117,2.065,6.15,1111122 
DISL,ioos:station:DISL:MBLA:1,2014-09-02T05:10:00Z,30.4367,-88.0117,1.547,6.09,1111122 
DISL,ioos:station:DISL:MBLA:1,2014-09-02T05:14:00Z,30.4367,-88.0117,1.031,6.18,1111122 
DISL,ioos:station:DISL:MBLA:1,2014-09-02T05:16:00Z,30.4367,-88.0117,0.362,6.2,1111122 
DISL,ioos:station:DISL:MBLA:1,2014-09-02T06:02:00Z,30.4367,-88.0117,3.05,6.0,1111122 
DISL,ioos:station:DISL:MBLA:1,2014-09-02T06:05:00Z,30.4367,-88.0117,2.404,6.1,1111122 
DISL,ioos:station:DISL:MBLA:1,2014-09-02T06:07:00Z,30.4367,-88.0117,2.045,6.08,1111122 
DISL,ioos:station:DISL:MBLA:1,2014-09-02T06:10:00Z,30.4367,-88.0117,1.543,6.07,1111122 
DISL,ioos:station:DISL:MBLA:1,2014-09-02T06:13:00Z,30.4367,-88.0117,0.923,6.09,1111122 
DISL,ioos:station:DISL:MBLA:1,2014-09-02T06:15:00Z,30.4367,-88.0117,0.611,6.09,1111122 
DISL,ioos:station:DISL:MBLA:1,2014-09-02T07:02:00Z,30.4367,-88.0117,3.121,5.7,1111122 
DISL,ioos:station:DISL:MBLA:1,2014-09-02T07:08:00Z,30.4367,-88.0117,2.085,5.99,1111122 
DISL,ioos:station:DISL:MBLA:1,2014-09-02T07:10:00Z,30.4367,-88.0117,1.35,5.99,1111122 
DISL,ioos:station:DISL:MBLA:1,2014-09-02T07:13:00Z,30.4367,-88.0117,0.841,6.03,1111122 
DISL,ioos:station:DISL:MBLA:1,2014-09-02T07:16:00Z,30.4367,-88.0117,0.442,6.03,1111122 
DISL,ioos:station:DISL:MBLA:1,2014-09-02T08:02:00Z,30.4367,-88.0117,3.036,5.67,1111122 
DISL,ioos:station:DISL:MBLA:1,2014-09-02T08:05:00Z,30.4367,-88.0117,2.396,5.83,1111122 
DISL,ioos:station:DISL:MBLA:1,2014-09-02T08:07:00Z,30.4367,-88.0117,2.007,5.83,1111122 
DISL,ioos:station:DISL:MBLA:1,2014-09-02T08:10:00Z,30.4367,-88.0117,1.515,5.79,1111122 
DISL,ioos:station:DISL:MBLA:1,2014-09-02T08:12:00Z,30.4367,-88.0117,0.921,5.79,1111122 
DISL,ioos:station:DISL:MBLA:1,2014-09-02T08:15:00Z,30.4367,-88.0117,0.564,5.82,1111122 
DISL,ioos:station:DISL:MBLA:1,2014-09-02T09:02:00Z,30.4367,-88.0117,3.048,5.04,1111122 
DISL,ioos:station:DISL:MBLA:1,2014-09-02T09:05:00Z,30.4367,-88.0117,2.483,5.26,1111122 
DISL,ioos:station:DISL:MBLA:1,2014-09-02T09:07:00Z,30.4367,-88.0117,2.054,5.31,1111122 
DISL,ioos:station:DISL:MBLA:1,2014-09-02T09:10:00Z,30.4367,-88.0117,1.533,5.35,1111122 
DISL,ioos:station:DISL:MBLA:1,2014-09-02T09:13:00Z,30.4367,-88.0117,1.063,5.38,1111122 
DISL,ioos:station:DISL:MBLA:1,2014-09-02T09:16:00Z,30.4367,-88.0117,0.418,5.43,1111122 
DISL,ioos:station:DISL:MBLA:1,2014-09-02T10:02:00Z,30.4367,-88.0117,3.059,5.15,1111122 
DISL,ioos:station:DISL:MBLA:1,2014-09-02T10:05:00Z,30.4367,-88.0117,2.418,5.25,1111122 
DISL,ioos:station:DISL:MBLA:1,2014-09-02T10:07:00Z,30.4367,-88.0117,2.062,5.27,1111122 
DISL,ioos:station:DISL:MBLA:1,2014-09-02T10:10:00Z,30.4367,-88.0117,1.562,5.09,1111122 
DISL,ioos:station:DISL:MBLA:1,2014-09-02T10:12:00Z,30.4367,-88.0117,0.915,5.09,1111122 
DISL,ioos:station:DISL:MBLA:1,2014-09-02T10:15:00Z,30.4367,-88.0117,0.66,5.11,1111122 
DISL,ioos:station:DISL:MBLA:1,2014-09-02T11:02:00Z,30.4367,-88.0117,3.082,4.78,1111122 
DISL,ioos:station:DISL:MBLA:1,2014-09-02T11:05:00Z,30.4367,-88.0117,2.446,5.13,1111122 
DISL,ioos:station:DISL:MBLA:1,2014-09-02T11:07:00Z,30.4367,-88.0117,1.916,5.15,1111122 
DISL,ioos:station:DISL:MBLA:1,2014-09-02T11:10:00Z,30.4367,-88.0117,1.39,5.25,1111122 
DISL,ioos:station:DISL:MBLA:1,2014-09-02T11:12:00Z,30.4367,-88.0117,0.916,5.52,1111122 
DISL,ioos:station:DISL:MBLA:1,2014-09-02T11:15:00Z,30.4367,-88.0117,0.399,5.6,1111122 
DISL,ioos:station:DISL:MBLA:1,2014-09-02T12:02:00Z,30.4367,-88.0117,3.056,4.68,1111122 
DISL,ioos:station:DISL:MBLA:1,2014-09-02T12:05:00Z,30.4367,-88.0117,2.417,4.87,1111122 
DISL,ioos:station:DISL:MBLA:1,2014-09-02T12:07:00Z,30.4367,-88.0117,2.071,4.95,1111122 
DISL,ioos:station:DISL:MBLA:1,2014-09-02T12:10:00Z,30.4367,-88.0117,1.421,5.47,1111122 
DISL,ioos:station:DISL:MBLA:1,2014-09-02T12:13:00Z,30.4367,-88.0117,1.031,5.49,1111122 
DISL,ioos:station:DISL:MBLA:1,2014-09-02T12:15:00Z,30.4367,-88.0117,0.544,5.6,1111122 
DISL,ioos:station:DISL:MBLA:1,2014-09-02T13:02:00Z,30.4367,-88.0117,3.05,4.44,1111122 
DISL,ioos:station:DISL:MBLA:1,2014-09-02T13:05:00Z,30.4367,-88.0117,2.399,4.5,1111122 
DISL,ioos:station:DISL:MBLA:1,2014-09-02T13:07:00Z,30.4367,-88.0117,2.048,4.37,1111122 
DISL,ioos:station:DISL:MBLA:1,2014-09-02T13:10:00Z,30.4367,-88.0117,1.544,4.46,1111122 
DISL,ioos:station:DISL:MBLA:1,2014-09-02T13:13:00Z,30.4367,-88.0117,1.055,5.2,1111122 
DISL,ioos:station:DISL:MBLA:1,2014-09-02T13:15:00Z,30.4367,-88.0117,0.561,5.47,1111122 
DISL,ioos:station:DISL:MBLA:1,2014-09-02T14:02:00Z,30.4367,-88.0117,3.086,5.07,1111122 
DISL,ioos:station:DISL:MBLA:1,2014-09-02T14:05:00Z,30.4367,-88.0117,2.407,4.88,1111122 
DISL,ioos:station:DISL:MBLA:1,2014-09-02T14:08:00Z,30.4367,-88.0117,1.896,4.88,1111122 
DISL,ioos:station:DISL:MBLA:1,2014-09-02T14:10:00Z,30.4367,-88.0117,1.332,5.38,1111122 
DISL,ioos:station:DISL:MBLA:1,2014-09-02T14:13:00Z,30.4367,-88.0117,1.056,5.56,1111122 
DISL,ioos:station:DISL:MBLA:1,2014-09-02T14:15:00Z,30.4367,-88.0117,0.477,5.87,1111122 
DISL,ioos:station:DISL:MBLA:1,2014-09-02T15:02:00Z,30.4367,-88.0117,3.075,4.89,1111122 
DISL,ioos:station:DISL:MBLA:1,2014-09-02T15:05:00Z,30.4367,-88.0117,2.546,4.91,1111122 
DISL,ioos:station:DISL:MBLA:1,2014-09-02T15:08:00Z,30.4367,-88.0117,2.098,4.92,1111122 
DISL,ioos:station:DISL:MBLA:1,2014-09-02T15:11:00Z,30.4367,-88.0117,1.587,4.83,1111122 
DISL,ioos:station:DISL:MBLA:1,2014-09-02T15:13:00Z,30.4367,-88.0117,0.847,6.38,1111122 
DISL,ioos:station:DISL:MBLA:1,2014-09-02T15:16:00Z,30.4367,-88.0117,0.539,6.5,1111122 
DISL,ioos:station:DISL:MBLA:1,2014-09-02T16:02:00Z,30.4367,-88.0117,3.087,4.74,1111122 
DISL,ioos:station:DISL:MBLA:1,2014-09-02T16:05:00Z,30.4367,-88.0117,2.565,4.9,1111122 
DISL,ioos:station:DISL:MBLA:1,2014-09-02T16:08:00Z,30.4367,-88.0117,1.949,4.98,1111122 
DISL,ioos:station:DISL:MBLA:1,2014-09-02T16:10:00Z,30.4367,-88.0117,1.358,5.73,1111122 
DISL,ioos:station:DISL:MBLA:1,2014-09-02T16:13:00Z,30.4367,-88.0117,1.057,6.39,1111122 
DISL,ioos:station:DISL:MBLA:1,2014-09-02T16:15:00Z,30.4367,-88.0117,0.45,6.63,1111122 
DISL,ioos:station:DISL:MBLA:1,2014-09-02T17:03:00Z,30.4367,-88.0117,2.93,4.65,1111122 
DISL,ioos:station:DISL:MBLA:1,2014-09-02T17:08:00Z,30.4367,-88.0117,1.953,5.41,1111122 
DISL,ioos:station:DISL:MBLA:1,2014-09-02T17:10:00Z,30.4367,-88.0117,1.362,6.07,1111122 
DISL,ioos:station:DISL:MBLA:1,2014-09-02T17:13:00Z,30.4367,-88.0117,1.045,6.31,1111122 
DISL,ioos:station:DISL:MBLA:1,2014-09-02T17:16:00Z,30.4367,-88.0117,0.438,6.74,1111122 
DISL,ioos:station:DISL:MBLA:1,2014-09-02T18:02:00Z,30.4367,-88.0117,3.075,4.43,1111122 
DISL,ioos:station:DISL:MBLA:1,2014-09-02T18:05:00Z,30.4367,-88.0117,2.554,5.35,1111122 
DISL,ioos:station:DISL:MBLA:1,2014-09-02T18:08:00Z,30.4367,-88.0117,1.95,5.72,1111122 
DISL,ioos:station:DISL:MBLA:1,2014-09-02T18:10:00Z,30.4367,-88.0117,1.355,6.45,1111122 
DISL,ioos:station:DISL:MBLA:1,2014-09-02T18:13:00Z,30.4367,-88.0117,1.038,7.24,1111122 
DISL,ioos:station:DISL:MBLA:1,2014-09-02T18:15:00Z,30.4367,-88.0117,0.429,7.8,1111122 
DISL,ioos:station:DISL:MBLA:1,2014-09-02T19:02:00Z,30.4367,-88.0117,3.063,4.72,1111122 
DISL,ioos:station:DISL:MBLA:1,2014-09-02T19:05:00Z,30.4367,-88.0117,2.55,5.38,1111122 
DISL,ioos:station:DISL:MBLA:1,2014-09-02T19:08:00Z,30.4367,-88.0117,2.034,6.03,1111122 
DISL,ioos:station:DISL:MBLA:1,2014-09-02T19:10:00Z,30.4367,-88.0117,1.591,6.1,1111122 
DISL,ioos:station:DISL:MBLA:1,2014-09-02T19:13:00Z,30.4367,-88.0117,1.011,6.85,1111122 
DISL,ioos:station:DISL:MBLA:1,2014-09-02T20:02:00Z,30.4367,-88.0117,3.097,4.62,1111122 
DISL,ioos:station:DISL:MBLA:1,2014-09-02T20:05:00Z,30.4367,-88.0117,2.42,5.53,1111122 
DISL,ioos:station:DISL:MBLA:1,2014-09-02T20:07:00Z,30.4367,-88.0117,1.883,6.17,1111122 
DISL,ioos:station:DISL:MBLA:1,2014-09-02T20:10:00Z,30.4367,-88.0117,1.491,6.55,1111122 
DISL,ioos:station:DISL:MBLA:1,2014-09-02T20:12:00Z,30.4367,-88.0117,1.038,6.76,1111122 
DISL,ioos:station:DISL:MBLA:1,2014-09-02T20:15:00Z,30.4367,-88.0117,0.361,6.94,1111122 
DISL,ioos:station:DISL:MBLA:1,2014-09-02T21:03:00Z,30.4367,-88.0117,2.968,4.7,1111122 
DISL,ioos:station:DISL:MBLA:1,2014-09-02T21:05:00Z,30.4367,-88.0117,2.54,5.05,1111122 
DISL,ioos:station:DISL:MBLA:1,2014-09-02T21:08:00Z,30.4367,-88.0117,1.935,6.21,1111122 
DISL,ioos:station:DISL:MBLA:1,2014-09-02T21:10:00Z,30.4367,-88.0117,1.551,6.6,1111122 
DISL,ioos:station:DISL:MBLA:1,2014-09-02T21:13:00Z,30.4367,-88.0117,1.108,6.75,1111122 
DISL,ioos:station:DISL:MBLA:1,2014-09-02T21:15:00Z,30.4367,-88.0117,0.398,6.88,1111122 
DISL,ioos:station:DISL:MBLA:1,2014-09-02T22:02:00Z,30.4367,-88.0117,3.024,5.03,1111122 
DISL,ioos:station:DISL:MBLA:1,2014-09-02T22:05:00Z,30.4367,-88.0117,2.42,5.96,1111122 
DISL,ioos:station:DISL:MBLA:1,2014-09-02T22:07:00Z,30.4367,-88.0117,2.051,6.59,1111122 
DISL,ioos:station:DISL:MBLA:1,2014-09-02T22:10:00Z,30.4367,-88.0117,1.448,6.74,1111122 
DISL,ioos:station:DISL:MBLA:1,2014-09-02T22:13:00Z,30.4367,-88.0117,0.89,6.8,1111122 
DISL,ioos:station:DISL:MBLA:1,2014-09-02T22:15:00Z,30.4367,-88.0117,0.423,6.9,1111122 
DISL,ioos:station:DISL:MBLA:1,2014-09-02T23:03:00Z,30.4367,-88.0117,2.962,5.28,1111122 
DISL,ioos:station:DISL:MBLA:1,2014-09-02T23:05:00Z,30.4367,-88.0117,2.534,5.88,1111122 
DISL,ioos:station:DISL:MBLA:1,2014-09-02T23:08:00Z,30.4367,-88.0117,1.924,6.55,1111122 